RAM811 EDDF-GMMN

Flight info

Callsign RAM811
Flight time N/A
Altitude 37000
Route ANEKI2L/18 ANEKI Y163 HERBI Y164 MOPAN DCT LUTIX DCT BENOT DCT NEMOS DCT NINTU DCT REPSI DCT LERGA DCT MINSO DCT NARAK DCT AGN DCT MAQAB DCT TIVLI N869 GALTO UB11 TUSOR
Aircraft B38M/M-SDE1FGHILORVWXY/HB1

Departure

Time N/A
Airport Frankfurt Main Airport (EDDF)

Arrival

Time 2026-04-29 21:39
Airport Mohammed V International Airport (GMMN)
Time Latitude Longitude Altitude Speed Heading
2026-04-29 20:58 35.97133 -5.03509 37002 ft 414 kts 216°
2026-04-29 20:59 35.92308 -5.07308 37010 ft 414 kts 216°
2026-04-29 20:59 35.87443 -5.11134 37005 ft 414 kts 216°
2026-04-29 21:00 35.82950 -5.14620 37009 ft 415 kts 214°
2026-04-29 21:00 35.77999 -5.18303 37007 ft 416 kts 214°
2026-04-29 21:01 35.73052 -5.21993 36968 ft 416 kts 214°
2026-04-29 21:01 35.68108 -5.25678 36965 ft 416 kts 214°
2026-04-29 21:02 35.63147 -5.29370 36962 ft 416 kts 214°
2026-04-29 21:02 35.58336 -5.33262 36970 ft 413 kts 219°
2026-04-29 21:03 35.53687 -5.37452 36965 ft 414 kts 218°
2026-04-29 21:03 35.49012 -5.41600 36969 ft 415 kts 218°
2026-04-29 21:04 35.44332 -5.45737 36971 ft 414 kts 218°
2026-04-29 21:04 35.39651 -5.49868 36976 ft 415 kts 218°
2026-04-29 21:05 35.34965 -5.53997 36979 ft 415 kts 218°
2026-04-29 21:05 35.30277 -5.58123 36990 ft 415 kts 218°
2026-04-29 21:06 35.25589 -5.62241 36990 ft 415 kts 218°
2026-04-29 21:06 35.20889 -5.66365 36982 ft 415 kts 218°
2026-04-29 21:07 35.16222 -5.70454 37005 ft 416 kts 218°
2026-04-29 21:07 35.12282 -5.73902 36998 ft 415 kts 218°
2026-04-29 21:08 35.06777 -5.78711 36998 ft 416 kts 218°
2026-04-29 21:08 35.02070 -5.82816 37000 ft 416 kts 218°
2026-04-29 21:09 34.97382 -5.86900 36997 ft 416 kts 218°
2026-04-29 21:09 34.92664 -5.91004 37004 ft 417 kts 218°
2026-04-29 21:10 34.88112 -5.95340 37006 ft 415 kts 221°
2026-04-29 21:10 34.83641 -5.99799 36999 ft 416 kts 221°
2026-04-29 21:11 34.79144 -6.04246 36996 ft 416 kts 221°
2026-04-29 21:11 34.74650 -6.08679 36999 ft 416 kts 221°
2026-04-29 21:12 34.70915 -6.12360 36992 ft 416 kts 221°
2026-04-29 21:12 34.66411 -6.16792 36997 ft 416 kts 221°
2026-04-29 21:13 34.61907 -6.21217 37001 ft 416 kts 221°
2026-04-29 21:13 34.57404 -6.25635 37004 ft 417 kts 221°
2026-04-29 21:14 34.52914 -6.30034 36266 ft 413 kts 221°
2026-04-29 21:14 34.50644 -6.32154 35642 ft 413 kts 214°
2026-04-29 21:14 34.48014 -6.33594 34931 ft 419 kts 200°
2026-04-29 21:14 34.45233 -6.34644 34288 ft 420 kts 200°
2026-04-29 21:15 34.42419 -6.35690 33496 ft 422 kts 200°
2026-04-29 21:15 34.39606 -6.36709 32689 ft 424 kts 199°
2026-04-29 21:15 34.36779 -6.37714 32124 ft 421 kts 199°
2026-04-29 21:15 34.33987 -6.38699 31625 ft 416 kts 199°
2026-04-29 21:16 34.31212 -6.39673 31094 ft 413 kts 199°
2026-04-29 21:16 34.28467 -6.40636 30553 ft 410 kts 199°
2026-04-29 21:16 34.25735 -6.41594 30006 ft 407 kts 199°
2026-04-29 21:16 34.23023 -6.42543 29393 ft 405 kts 199°
2026-04-29 21:17 34.20336 -6.43483 28848 ft 401 kts 199°
2026-04-29 21:17 34.17667 -6.44416 28339 ft 397 kts 199°
2026-04-29 21:17 34.15031 -6.45338 27834 ft 393 kts 198°
2026-04-29 21:17 34.12414 -6.46252 27328 ft 390 kts 198°
2026-04-29 21:18 34.09824 -6.47156 26835 ft 387 kts 198°
2026-04-29 21:18 34.07244 -6.48056 26332 ft 384 kts 198°
2026-04-29 21:18 34.04690 -6.48946 25847 ft 382 kts 198°
2026-04-29 21:18 34.02140 -6.49834 25358 ft 380 kts 198°
2026-04-29 21:19 33.99609 -6.50716 24877 ft 378 kts 198°
2026-04-29 21:19 33.97204 -6.51948 24282 ft 376 kts 214°
2026-04-29 21:19 33.95205 -6.53963 23801 ft 374 kts 223°
2026-04-29 21:19 33.93304 -6.56089 23325 ft 372 kts 223°
2026-04-29 21:20 33.91430 -6.58226 22816 ft 370 kts 224°
2026-04-29 21:20 33.89582 -6.60359 22358 ft 366 kts 224°
2026-04-29 21:20 33.87759 -6.62480 21913 ft 363 kts 224°
2026-04-29 21:20 33.85954 -6.64588 21488 ft 360 kts 224°
2026-04-29 21:21 33.84162 -6.66684 21058 ft 357 kts 224°
2026-04-29 21:21 33.82411 -6.68732 20650 ft 355 kts 224°
2026-04-29 21:21 33.80626 -6.70819 20236 ft 352 kts 224°
2026-04-29 21:21 33.78898 -6.72838 19830 ft 350 kts 224°
2026-04-29 21:22 33.77138 -6.74895 19431 ft 348 kts 224°
2026-04-29 21:22 33.75429 -6.76889 19041 ft 345 kts 224°
2026-04-29 21:22 33.73711 -6.78893 18651 ft 343 kts 224°
2026-04-29 21:22 33.72005 -6.80883 18262 ft 341 kts 225°
2026-04-29 21:23 33.70284 -6.82888 17817 ft 339 kts 224°
2026-04-29 21:23 33.68596 -6.84854 17430 ft 336 kts 224°
2026-04-29 21:23 33.66945 -6.86776 17055 ft 333 kts 224°
2026-04-29 21:23 33.65209 -6.88658 16610 ft 333 kts 214°
2026-04-29 21:24 33.63134 -6.89833 16231 ft 338 kts 201°
2026-04-29 21:24 33.60904 -6.90787 15866 ft 341 kts 200°
2026-04-29 21:24 33.58655 -6.91721 15505 ft 341 kts 200°
2026-04-29 21:24 33.56415 -6.92631 15129 ft 339 kts 200°
2026-04-29 21:25 33.54181 -6.93528 14745 ft 338 kts 199°
2026-04-29 21:25 33.51956 -6.94413 14358 ft 336 kts 199°
2026-04-29 21:25 33.49750 -6.95287 13992 ft 333 kts 199°
2026-04-29 21:25 33.47555 -6.96154 13586 ft 331 kts 199°
2026-04-29 21:26 33.45378 -6.97015 13177 ft 328 kts 199°
2026-04-29 21:26 33.43216 -6.97868 12797 ft 325 kts 199°
2026-04-29 21:26 33.41084 -6.98708 12433 ft 322 kts 199°
2026-04-29 21:26 33.38970 -6.99542 12068 ft 318 kts 199°
2026-04-29 21:27 33.36873 -7.00369 11712 ft 316 kts 199°
2026-04-29 21:27 33.34796 -7.01187 11340 ft 313 kts 199°
2026-04-29 21:27 33.32734 -7.01997 10996 ft 311 kts 199°
2026-04-29 21:27 33.30692 -7.02801 10681 ft 307 kts 199°
2026-04-29 21:28 33.28696 -7.03586 10529 ft 297 kts 199°
2026-04-29 21:28 33.26764 -7.04345 10387 ft 288 kts 200°
2026-04-29 21:28 33.24884 -7.05084 10249 ft 280 kts 200°
2026-04-29 21:28 33.23063 -7.05799 10111 ft 271 kts 200°
2026-04-29 21:29 33.21291 -7.06494 9905 ft 269 kts 200°
2026-04-29 21:29 33.19598 -7.07457 9521 ft 272 kts 219°
2026-04-29 21:29 33.18397 -7.09189 9183 ft 274 kts 243°
2026-04-29 21:29 33.17829 -7.11363 8935 ft 275 kts 256°
2026-04-29 21:30 33.17435 -7.13599 8644 ft 276 kts 257°
2026-04-29 21:30 33.17059 -7.15841 8358 ft 276 kts 257°
2026-04-29 21:30 33.16691 -7.18093 8059 ft 276 kts 257°
2026-04-29 21:30 33.16330 -7.20344 7765 ft 276 kts 258°
2026-04-29 21:31 33.15975 -7.22592 7476 ft 275 kts 258°
2026-04-29 21:31 33.15623 -7.24830 7187 ft 273 kts 258°
2026-04-29 21:31 33.15277 -7.27043 6900 ft 271 kts 258°
2026-04-29 21:31 33.14932 -7.29245 6577 ft 270 kts 258°
2026-04-29 21:32 33.14588 -7.31440 6270 ft 268 kts 258°
2026-04-29 21:32 33.14245 -7.33623 5963 ft 266 kts 258°
2026-04-29 21:32 33.13905 -7.35790 5649 ft 265 kts 258°
2026-04-29 21:32 33.13572 -7.37913 5498 ft 261 kts 258°
2026-04-29 21:33 33.13244 -7.40001 5361 ft 252 kts 258°
2026-04-29 21:33 33.12926 -7.42019 5252 ft 243 kts 258°
2026-04-29 21:33 33.12617 -7.43976 5128 ft 237 kts 258°
2026-04-29 21:33 33.12314 -7.45896 5002 ft 235 kts 258°
2026-04-29 21:34 33.12085 -7.47801 4864 ft 231 kts 270°
2026-04-29 21:34 33.12510 -7.49606 4706 ft 226 kts 301°
2026-04-29 21:34 33.13590 -7.50944 4592 ft 225 kts 325°
2026-04-29 21:34 33.14993 -7.51772 4474 ft 226 kts 340°
2026-04-29 21:35 33.16463 -7.52293 4377 ft 216 kts 344°
2026-04-29 21:35 33.17881 -7.52760 4176 ft 208 kts 344°
2026-04-29 21:35 33.19255 -7.53225 3897 ft 202 kts 344°
2026-04-29 21:35 33.20566 -7.53672 3623 ft 189 kts 345°
2026-04-29 21:36 33.21779 -7.54086 3372 ft 176 kts 345°
2026-04-29 21:36 33.22947 -7.54485 3138 ft 173 kts 345°
2026-04-29 21:36 33.24099 -7.54879 2906 ft 171 kts 345°
2026-04-29 21:36 33.25239 -7.55270 2682 ft 169 kts 345°
2026-04-29 21:37 33.26363 -7.55654 2448 ft 166 kts 345°
2026-04-29 21:37 33.27407 -7.56013 2266 ft 148 kts 346°
2026-04-29 21:37 33.28376 -7.56344 2052 ft 142 kts 345°
2026-04-29 21:37 33.29320 -7.56667 1865 ft 140 kts 346°
2026-04-29 21:38 33.30256 -7.56987 1673 ft 140 kts 346°
2026-04-29 21:38 33.31188 -7.57307 1461 ft 139 kts 345°
2026-04-29 21:38 33.32119 -7.57632 1292 ft 139 kts 346°
2026-04-29 21:38 33.33049 -7.57949 1104 ft 139 kts 333°
2026-04-29 21:39 33.33716 -7.58376 768 ft 136 kts 292°
2026-04-29 21:39 33.33773 -7.58467 685 ft 0 kts 284°